Total_Precipitation_Accumulation
0.04 0.03 0.04 0.07 0.11 0.15 0.19 0.20 0.29 0.48 0.56 0.46 0.45 0.47 0.49 0.54 0.80 1.50 0.98 0.60 0.41 0.30 0.34 0.36 0.37 0.35 0.34 0.31 0.32 0.27 0.25 0.30 0.33 0.32 0.37 0.40 0.33 0.30 0.30 0.33 0.43 0.53 0.54 0.49 0.46 0.46 0.50 0.51 0.41
0.05 0.05 0.05 0.07 0.11 0.17 0.25 0.24 0.36 0.48 0.49 0.50 0.48 0.57 0.59 0.51 0.43 0.47 0.57 0.47 0.31 0.28 0.34 0.33 0.36 0.38 0.36 0.32 0.32 0.29 0.30 0.32 0.39 0.43 0.46 0.50 0.42 0.37 0.39 0.41 0.46 0.58 0.61 0.54 0.48 0.45 0.48 0.48 0.40
0.05 0.06 0.05 0.05 0.11 0.21 0.30 0.33 0.42 0.48 0.48 0.54 0.62 0.66 0.67 0.68 0.52 0.56 0.60 0.45 0.34 0.34 0.35 0.33 0.31 0.38 0.43 0.43 0.42 0.41 0.38 0.41 0.45 0.52 0.58 0.64 0.57 0.50 0.50 0.50 0.51 0.60 0.64 0.63 0.58 0.52 0.51 0.49 0.46
0.05 0.05 0.04 0.07 0.12 0.15 0.23 0.37 0.45 0.50 0.55 0.53 0.53 0.68 0.78 0.76 0.64 0.62 0.58 0.51 0.44 0.47 0.46 0.37 0.38 0.42 0.56 0.57 0.53 0.51 0.49 0.50 0.57 0.61 0.63 0.69 0.64 0.60 0.65 0.68 0.67 0.72 0.72 0.72 0.69 0.70 0.66 0.56 0.60
0.03 0.04 0.05 0.11 0.15 0.16 0.20 0.40 0.49 0.52 0.53 0.54 0.63 0.82 0.92 0.98 0.84 0.72 0.64 0.62 0.61 0.68 0.67 0.51 0.48 0.49 0.61 0.59 0.58 0.55 0.55 0.56 0.66 0.69 0.66 0.69 0.66 0.63 0.72 0.85 0.85 0.91 0.94 0.82 0.74 0.77 0.77 0.72 0.76
0.03 0.03 0.08 0.13 0.18 0.23 0.25 0.34 0.45 0.54 0.59 0.60 0.73 0.93 1.21 1.29 1.16 0.99 0.77 0.72 0.67 0.73 0.70 0.54 0.51 0.53 0.66 0.70 0.65 0.62 0.60 0.64 0.76 0.80 0.74 0.69 0.68 0.71 0.79 0.90 0.97 1.05 1.03 0.88 0.82 0.80 0.75 0.85 0.87
0.02 0.04 0.07 0.12 0.20 0.25 0.28 0.38 0.53 0.57 0.68 0.75 0.87 1.09 1.39 1.46 1.21 1.03 0.94 0.84 0.74 0.78 0.78 0.71 0.72 0.70 0.71 0.73 0.76 0.81 0.73 0.76 0.85 0.85 0.87 0.79 0.78 0.90 0.98 0.98 1.02 1.08 1.08 0.95 0.88 0.89 0.80 0.84 0.91
0.01 0.05 0.09 0.15 0.18 0.21 0.27 0.39 0.60 0.71 0.83 0.92 1.11 1.18 1.60 1.63 1.38 1.24 1.20 1.19 1.25 1.44 1.45 1.27 1.18 1.06 0.89 0.78 0.77 0.79 0.80 0.91 1.03 0.96 0.90 0.90 0.90 0.97 1.09 1.06 1.06 1.01 0.94 0.93 0.91 0.96 0.95 0.86 0.83
0.00 0.04 0.08 0.11 0.15 0.20 0.30 0.45 0.55 0.69 0.90 0.94 1.01 1.02 1.32 1.36 1.44 1.61 1.68 1.87 1.93 2.11 2.19 1.86 1.46 1.24 1.19 1.04 0.86 0.92 0.89 0.93 1.01 1.02 0.98 1.04 1.27 1.40 1.43 1.26 1.32 1.18 1.05 1.04 1.05 1.00 0.95 0.86 0.81
0.00 0.03 0.06 0.09 0.13 0.19 0.34 0.51 0.59 0.63 0.83 0.90 0.92 0.98 1.15 1.41 1.61 1.81 2.07 2.67 2.58 2.43 2.42 2.13 1.66 1.74 1.84 1.44 1.32 1.27 1.16 1.11 1.11 1.24 1.25 1.34 1.76 1.83 1.56 1.60 1.55 1.51 1.37 1.29 1.28 1.24 1.11 0.97 0.91
0.01 0.03 0.06 0.10 0.15 0.23 0.39 0.53 0.65 0.81 0.95 1.00 1.08 1.21 1.39 1.70 1.75 1.86 2.17 2.77 2.93 2.56 2.20 1.85 1.74 1.78 1.94 1.87 1.78 1.70 1.67 1.71 1.72 1.76 1.77 1.94 1.99 1.81 1.63 1.83 1.74 1.76 1.70 1.67 1.74 1.57 1.35 1.27 1.27
0.02 0.03 0.06 0.13 0.20 0.27 0.46 0.65 0.76 1.00 1.15 1.20 1.20 1.23 1.54 1.72 1.73 2.02 2.51 2.49 2.50 2.44 2.24 2.13 2.10 2.02 2.12 2.43 2.42 2.26 2.20 2.11 2.01 2.04 1.98 2.26 2.40 2.25 2.22 2.25 2.16 2.26 2.32 2.34 2.13 1.91 1.68 1.55 1.40
0.03 0.05 0.08 0.15 0.27 0.31 0.45 0.70 0.68 0.82 0.97 1.02 1.03 1.12 1.41 1.70 1.93 2.34 2.62 2.68 2.64 2.63 2.42 2.38 2.44 2.41 2.42 2.80 2.97 2.72 2.62 2.42 2.28 2.24 2.28 2.40 2.46 2.47 2.60 2.58 2.71 2.61 2.50 2.40 2.26 1.97 1.93 1.79 1.62
0.05 0.08 0.13 0.19 0.31 0.37 0.39 0.51 0.56 0.72 0.83 0.92 1.05 1.12 1.33 1.65 2.10 2.45 2.63 2.79 2.90 2.91 2.66 2.54 2.58 2.48 2.51 2.72 2.92 2.90 2.78 2.80 2.70 2.54 2.49 2.50 2.59 2.72 2.77 2.85 2.82 2.65 2.45 2.47 2.45 2.28 2.25 2.12 1.95
0.06 0.10 0.18 0.23 0.28 0.33 0.33 0.45 0.58 0.66 0.76 0.82 1.00 1.26 1.47 1.91 2.17 2.29 2.48 2.87 3.06 3.17 3.15 3.01 2.93 2.99 2.87 2.87 2.94 2.87 2.84 3.01 2.96 2.92 2.93 2.76 2.66 2.76 2.85 2.97 2.93 2.80 2.70 2.65 2.57 2.55 2.50 2.34 2.19
0.12 0.12 0.18 0.24 0.30 0.28 0.32 0.56 0.64 0.71 0.78 0.86 0.87 1.10 1.55 1.94 1.90 1.89 2.19 2.80 3.49 3.75 3.67 3.25 2.91 3.13 3.15 3.17 3.20 3.22 3.18 3.28 3.22 3.00 3.06 2.96 2.97 2.92 2.94 2.88 2.76 2.72 2.68 2.83 2.89 2.80 2.78 2.63 2.52
0.17 0.16 0.19 0.24 0.29 0.28 0.36 0.66 0.80 0.82 0.88 0.89 0.92 1.15 1.51 1.62 1.58 1.72 2.18 2.92 3.78 4.37 4.13 3.50 3.16 3.22 3.35 3.32 3.47 3.67 3.78 3.77 3.60 3.41 3.37 3.20 3.24 3.19 3.15 3.24 3.20 3.06 3.09 3.08 2.85 2.92 3.00 3.03 2.93
0.18 0.19 0.26 0.25 0.26 0.27 0.35 0.57 0.74 0.97 0.99 1.03 1.04 1.28 1.41 1.55 1.53 1.73 2.26 3.00 3.77 4.49 4.37 3.89 3.60 3.75 3.72 3.58 3.70 3.85 3.92 3.92 4.00 4.02 3.94 3.72 3.60 3.65 3.78 3.84 3.79 3.57 3.46 3.40 3.43 3.40 3.14 2.98 2.92
0.17 0.21 0.25 0.25 0.22 0.28 0.35 0.52 0.65 0.84 0.89 0.98 1.10 1.25 1.21 1.30 1.47 1.84 2.37 3.08 3.52 3.70 3.78 3.92 3.91 3.97 3.98 3.90 3.89 4.08 4.23 4.25 4.24 4.38 4.42 4.24 4.13 4.21 4.45 4.48 4.41 4.13 3.85 3.64 3.57 3.51 3.30 3.03 2.87
0.20 0.23 0.25 0.28 0.25 0.26 0.38 0.56 0.73 0.85 0.90 0.99 1.11 1.14 1.13 1.14 1.38 1.85 2.33 2.82 3.13 3.45 3.62 3.76 3.77 4.00 4.25 4.60 5.06 5.32 5.44 5.34 5.16 5.07 4.99 4.87 4.75 4.78 4.82 4.82 4.52 4.22 4.05 3.79 3.53 3.45 3.29 3.04 2.96
0.20 0.19 0.26 0.35 0.36 0.32 0.44 0.76 0.87 0.95 1.08 1.21 1.27 1.36 1.37 1.23 1.41 1.80 2.06 2.45 2.73 3.05 3.33 3.54 3.82 4.29 4.81 5.46 6.23 6.52 6.26 5.87 5.65 5.33 5.27 5.06 4.82 4.78 4.80 4.52 4.25 4.05 3.88 3.70 3.50 3.45 3.36 3.08 2.97
0.15 0.13 0.19 0.26 0.33 0.39 0.41 0.84 1.12 1.20 1.38 1.52 1.40 1.37 1.40 1.40 1.45 1.65 1.91 2.19 2.39 2.76 3.21 3.63 4.10 4.72 5.36 5.92 6.38 6.57 6.44 6.17 5.90 5.45 5.07 4.68 4.34 4.15 4.04 3.92 3.68 3.56 3.44 3.29 3.12 3.14 3.12 3.00 2.78
0.10 0.10 0.13 0.18 0.24 0.35 0.41 0.68 1.19 1.41 1.54 1.63 1.49 1.42 1.36 1.38 1.35 1.49 1.70 1.97 2.29 2.70 3.18 3.67 4.14 4.80 5.30 5.80 6.16 6.34 6.34 6.22 5.84 5.16 4.54 4.13 3.79 3.53 3.26 3.04 2.93 2.92 2.87 2.67 2.48 2.48 2.48 2.47 2.39
0.10 0.10 0.14 0.21 0.27 0.45 0.43 0.68 1.32 1.67 1.75 1.70 1.63 1.58 1.46 1.45 1.50 1.51 1.61 1.79 2.23 2.63 3.11 3.46 3.80 4.48 5.17 5.65 6.00 6.25 6.20 5.96 5.33 4.64 4.10 3.75 3.45 3.17 2.90 2.75 2.57 2.49 2.38 2.21 2.06 1.99 1.98 2.02 2.03
0.12 0.19 0.37 0.48 0.57 0.59 0.46 0.72 1.28 1.40 1.41 1.49 1.44 1.39 1.42 1.44 1.44 1.47 1.68 1.81 2.28 2.67 2.95 3.20 3.45 3.84 4.35 4.79 5.08 5.26 5.31 5.10 4.67 4.25 3.78 3.41 3.16 2.88 2.56 2.26 2.09 2.00 1.93 1.86 1.82 1.72 1.66 1.71 1.74
0.11 0.20 0.48 0.69 0.72 0.69 0.72 1.21 1.61 1.42 1.37 1.39 1.40 1.28 1.29 1.39 1.39 1.41 1.65 1.87 2.01 2.23 2.48 2.77 3.01 3.27 3.52 3.72 3.92 3.89 3.89 3.87 3.67 3.34 2.91 2.60 2.34 2.18 2.01 1.80 1.69 1.65 1.66 1.62 1.58 1.48 1.39 1.43 1.54
0.10 0.16 0.20 0.36 0.42 0.67 1.00 1.34 1.74 1.68 1.67 1.48 1.36 1.32 1.32 1.33 1.36 1.45 1.63 1.76 1.82 1.94 2.15 2.32 2.41 2.60 2.67 2.63 2.61 2.66 2.68 2.67 2.58 2.45 2.19 1.87 1.63 1.50 1.44 1.40 1.37 1.26 1.28 1.33 1.33 1.29 1.28 1.33 1.33
0.11 0.15 0.23 0.49 0.70 0.90 1.10 1.63 2.14 2.15 1.97 1.73 1.48 1.34 1.22 1.24 1.30 1.41 1.54 1.69 1.78 1.79 1.97 2.06 1.99 2.00 2.05 2.08 2.01 1.94 1.97 2.00 1.99 1.92 1.76 1.57 1.39 1.26 1.17 1.13 1.09 0.99 0.96 1.01 1.09 1.11 1.18 1.28 1.25
0.17 0.20 0.26 0.45 0.59 0.99 1.37 2.00 2.06 2.19 2.09 1.96 1.85 1.51 1.30 1.29 1.34 1.46 1.46 1.47 1.49 1.52 1.56 1.63 1.63 1.64 1.61 1.60 1.62 1.60 1.55 1.51 1.51 1.55 1.49 1.35 1.25 1.12 1.01 0.93 0.93 0.93 0.87 0.85 0.92 0.95 1.00 1.11 1.15
0.19 0.23 0.30 0.56 0.68 0.76 1.20 2.03 1.80 2.14 2.25 2.11 1.95 1.62 1.48 1.41 1.46 1.50 1.44 1.34 1.35 1.45 1.46 1.43 1.41 1.38 1.38 1.41 1.43 1.47 1.33 1.25 1.26 1.25 1.22 1.14 1.12 1.08 1.01 0.96 0.94 0.87 0.81 0.82 0.83 0.83 0.82 0.89 0.95